| time (UTC) | temp F | wind direction | speed MPH | gust MPH | rain 1hr in | rain 24hr in | rain mn in | humidity % | barometer mb |
| 20260831111527 | 50 | 202 | 1.0 | 2.0 | 0.00 | 0.00 | 0.00 | 70 | |
| 20260831110535 | 51 | 218 | 0.0 | 1.0 | 0.00 | 0.00 | 0.00 | 71 | |
| 20260831105527 | 52 | 203 | 1.0 | 2.0 | 0.00 | 0.00 | 0.00 | 76 | |
| 20260831104535 | 53 | 0.0 | 0.0 | 0.00 | 0.00 | 0.00 | 74 | ||
| 20260831103527 | 53 | 0.0 | 0.0 | 0.00 | 0.00 | 0.00 | 73 | ||
| 20260831102535 | 54 | 244 | 1.0 | 2.0 | 0.00 | 0.00 | 0.00 | 72 | |
| 20260831101547 | 53 | 235 | 0.0 | 1.0 | 0.00 | 0.00 | 0.00 | 69 | |
| 20260831100535 | 54 | 234 | 1.0 | 1.0 | 0.00 | 0.00 | 0.00 | 69 | |
| 20260831095547 | 54 | 242 | 1.0 | 2.0 | 0.00 | 0.00 | 0.00 | 69 | |
| 20260831094535 | 55 | 247 | 1.0 | 2.0 | 0.00 | 0.00 | 0.00 | 68 | |
| 20260831093527 | 55 | 248 | 1.0 | 2.0 | 0.00 | 0.00 | 0.00 | 66 | |
| 20260831091527 | 55 | 247 | 1.0 | 2.0 | 0.00 | 0.00 | 0.00 | 61 | |
| 20260831090535 | 56 | 247 | 1.0 | 2.0 | 0.00 | 0.00 | 0.00 | 59 | |
| 20260831085528 | 57 | 256 | 1.0 | 3.0 | 0.00 | 0.00 | 0.00 | 56 | |
| 20260831084535 | 57 | 259 | 2.0 | 5.0 | 0.00 | 0.00 | 0.00 | 53 | |
| 20260831083527 | 57 | 267 | 2.0 | 5.0 | 0.00 | 0.00 | 0.00 | 51 | |
| 20260831082535 | 58 | 272 | 3.0 | 5.0 | 0.00 | 0.00 | 0.00 | 49 | |
| 20260831081527 | 58 | 269 | 2.0 | 6.0 | 0.00 | 0.00 | 0.00 | 47 | |
| 20260831080535 | 59 | 270 | 3.0 | 5.0 | 0.00 | 0.00 | 0.00 | 44 | |
| 20260831075527 | 59 | 269 | 3.0 | 6.0 | 0.00 | 0.00 | 0.00 | 43 | |
| 20260831074535 | 60 | 263 | 3.0 | 5.0 | 0.00 | 0.00 | 0.00 | 42 | |
| 20260831073527 | 61 | 262 | 3.0 | 6.0 | 0.00 | 0.00 | 0.00 | 40 | |
| 20260831072536 | 62 | 278 | 4.0 | 9.0 | 0.00 | 0.00 | 0.00 | 38 | |
| 20260831071528 | 63 | 276 | 4.0 | 8.0 | 0.00 | 0.00 | 0.00 | 37 | |
| 20260831070535 | 64 | 277 | 3.0 | 7.0 | 0.00 | 0.00 | 0.00 | 37 | |
| 20260831065529 | 65 | 277 | 3.0 | 6.0 | 0.00 | 0.00 | 0.00 | 35 | |
| 20260831064535 | 66 | 275 | 4.0 | 8.0 | 0.00 | 0.00 | 0.00 | 34 | |
| 20260831063547 | 66 | 264 | 2.0 | 5.0 | 0.00 | 0.00 | 0.00 | 33 | |
| 20260831062519 | 66 | 289 | 3.0 | 6.0 | 0.00 | 0.00 | 0.00 | 32 | |
| 20260831061527 | 67 | 280 | 3.0 | 7.0 | 0.00 | 0.00 | 0.00 | 32 | |
| 20260831060520 | 67 | 286 | 3.0 | 7.0 | 0.00 | 0.00 | 0.00 | 30 | |
| 20260831055527 | 67 | 268 | 4.0 | 9.0 | 0.00 | 0.00 | 0.00 | 31 | |
| 20260831054520 | 68 | 284 | 4.0 | 7.0 | 0.00 | 0.00 | 0.00 | 32 | |
| 20260831053527 | 68 | 273 | 3.0 | 7.0 | 0.00 | 0.00 | 0.00 | 33 | |
| 20260831052519 | 69 | 261 | 4.0 | 7.0 | 0.00 | 0.00 | 0.00 | 32 | |
| 20260831051527 | 68 | 286 | 3.0 | 7.0 | 0.00 | 0.00 | 0.00 | 31 | |
| 20260831050520 | 68 | 281 | 6.0 | 10.0 | 0.00 | 0.00 | 0.00 | 29 | |
| 20260831045528 | 68 | 266 | 3.0 | 6.0 | 0.00 | 0.00 | 0.00 | 28 | |
| 20260831044600 | 68 | 288 | 4.0 | 7.0 | 0.00 | 0.00 | 0.00 | 28 | |
| 20260831043527 | 68 | 272 | 4.0 | 7.0 | 0.00 | 0.00 | 0.00 | 26 | |
| 20260831042519 | 68 | 285 | 4.0 | 9.0 | 0.00 | 0.00 | 0.00 | 25 | |
| 20260831041547 | 68 | 268 | 2.0 | 9.0 | 0.00 | 0.00 | 0.00 | 25 | |
| 20260831040519 | 68 | 272 | 4.0 | 9.0 | 0.00 | 0.00 | 0.00 | 25 | |
| 20260831035527 | 67 | 231 | 4.0 | 9.0 | 0.00 | 0.00 | 0.00 | 26 | |
| 20260831034520 | 68 | 257 | 4.0 | 9.0 | 0.00 | 0.00 | 0.00 | 26 | |
| 20260831033528 | 70 | 241 | 3.0 | 9.0 | 0.00 | 0.00 | 0.00 | 25 | |
| 20260831032539 | 69 | 231 | 2.0 | 5.0 | 0.00 | 0.00 | 0.00 | 25 | |
| 20260831031527 | 69 | 249 | 2.0 | 7.0 | 0.00 | 0.00 | 0.00 | 25 | |
| 20260831030520 | 69 | 243 | 2.0 | 6.0 | 0.00 | 0.00 | 0.00 | 24 | |
| 20260831025528 | 68 | 229 | 2.0 | 6.0 | 0.00 | 0.00 | 0.00 | 25 | |
| 20260831024524 | 70 | 254 | 4.0 | 8.0 | 0.00 | 0.00 | 0.00 | 25 | |
| 20260831023528 | 68 | 271 | 2.0 | 7.0 | 0.00 | 0.00 | 0.00 | 27 | |
| 20260831022519 | 68 | 308 | 2.0 | 6.0 | 0.00 | 0.00 | 0.00 | 28 | |
| 20260831021527 | 68 | 288 | 2.0 | 5.0 | 0.00 | 0.00 | 0.00 | 26 | |
| 20260831020600 | 68 | 285 | 2.0 | 6.0 | 0.00 | 0.00 | 0.00 | 30 | |
| 20260831015528 | 68 | 286 | 2.0 | 7.0 | 0.00 | 0.00 | 0.00 | 34 | |
| 20260831014520 | 67 | 161 | 1.0 | 3.0 | 0.00 | 0.00 | 0.00 | 32 | |
| 20260831013528 | 66 | 110 | 1.0 | 3.0 | 0.00 | 0.00 | 0.00 | 31 | |
| 20260831012520 | 65 | 108 | 1.0 | 3.0 | 0.00 | 0.00 | 0.00 | 32 | |
| 20260831011528 | 65 | 173 | 1.0 | 3.0 | 0.00 | 0.00 | 0.00 | 31 | |
| 20260831010520 | 64 | 175 | 1.0 | 3.0 | 0.00 | 0.00 | 0.00 | 34 | |
| 20260831005528 | 64 | 173 | 1.0 | 3.0 | 0.00 | 0.00 | 0.00 | 34 | |
| 20260831004519 | 64 | 175 | 1.0 | 3.0 | 0.00 | 0.00 | 0.00 | 37 | |
| 20260831003527 | 63 | 174 | 1.0 | 3.0 | 0.00 | 0.00 | 0.00 | 47 | |
| 20260831002520 | 61 | 177 | 1.0 | 3.0 | 0.00 | 0.00 | 0.00 | 57 | |
| 20260831001527 | 61 | 177 | 1.0 | 2.0 | 0.00 | 0.00 | 0.00 | 59 | |
| 20260831000520 | 60 | 182 | 0.0 | 2.0 | 0.00 | 0.00 | 0.00 | 61 | |
| 20260830235528 | 59 | 187 | 0.0 | 2.0 | 0.00 | 0.00 | 0.00 | 63 | |
| 20260830234601 | 59 | 176 | 1.0 | 3.0 | 0.00 | 0.00 | 0.00 | 62 | |
| 20260830233529 | 56 | 202 | 0.0 | 1.0 | 0.00 | 0.00 | 0.00 | 66 | |
| 20260830232520 | 54 | 178 | 1.0 | 3.0 | 0.00 | 0.00 | 0.00 | 69 | |
| 20260830231528 | 53 | 179 | 1.0 | 3.0 | 0.00 | 0.00 | 0.00 | 70 | |
| 20260830230520 | 51 | 180 | 2.0 | 5.0 | 0.00 | 0.00 | 0.00 | 73 | |
| 20260830225548 | 50 | 180 | 2.0 | 5.0 | 0.00 | 0.00 | 0.00 | 74 | |
| 20260830224520 | 48 | 177 | 1.0 | 3.0 | 0.00 | 0.00 | 0.00 | 80 | |
| 20260830223528 | 47 | 175 | 1.0 | 3.0 | 0.00 | 0.00 | 0.00 | 80 | |
| 20260830222520 | 48 | 174 | 1.0 | 3.0 | 0.00 | 0.00 | 0.00 | 78 | |
| 20260830221548 | 47 | 178 | 2.0 | 5.0 | 0.00 | 0.00 | 0.00 | 77 | |
| 20260830220520 | 45 | 181 | 2.0 | 6.0 | 0.00 | 0.00 | 0.00 | 81 | |
| 20260830215527 | 43 | 185 | 1.0 | 3.0 | 0.00 | 0.00 | 0.00 | 85 | |
| 20260830214520 | 43 | 181 | 2.0 | 5.0 | 0.00 | 0.00 | 0.00 | 86 | |
| 20260830213528 | 42 | 184 | 1.0 | 2.0 | 0.00 | 0.00 | 0.00 | 88 | |
| 20260830212520 | 42 | 183 | 2.0 | 3.0 | 0.00 | 0.00 | 0.00 | 88 | |
| 20260830211527 | 42 | 193 | 1.0 | 2.0 | 0.00 | 0.00 | 0.00 | 91 | |
| 20260830210520 | 41 | 187 | 0.0 | 2.0 | 0.00 | 0.00 | 0.00 | 95 | |
| 20260830205528 | 39 | 0.0 | 0.0 | 0.00 | 0.00 | 0.00 | 96 | ||
| 20260830204520 | 38 | 193 | 0.0 | 1.0 | 0.00 | 0.00 | 0.00 | 97 | |
| 20260830203528 | 37 | 0.0 | 0.0 | 0.00 | 0.00 | 0.00 | 96 | ||
| 20260830202520 | 38 | 188 | 1.0 | 2.0 | 0.00 | 0.00 | 0.00 | 96 | |
| 20260830201548 | 38 | 184 | 2.0 | 3.0 | 0.00 | 0.00 | 0.00 | 96 | |
| 20260830200520 | 38 | 189 | 1.0 | 2.0 | 0.00 | 0.00 | 0.00 | 96 | |
| 20260830195528 | 38 | 182 | 2.0 | 3.0 | 0.00 | 0.00 | 0.00 | 96 | |
| 20260830194520 | 38 | 182 | 2.0 | 3.0 | 0.00 | 0.00 | 0.00 | 96 | |
| 20260830193528 | 39 | 188 | 0.0 | 1.0 | 0.00 | 0.00 | 0.00 | 96 | |
| 20260830192520 | 39 | 192 | 1.0 | 2.0 | 0.00 | 0.00 | 0.00 | 96 | |
| 20260830191528 | 39 | 195 | 2.0 | 3.0 | 0.00 | 0.00 | 0.00 | 96 | |
| 20260830190520 | 39 | 192 | 2.0 | 3.0 | 0.00 | 0.00 | 0.00 | 96 | |
| 20260830185528 | 38 | 186 | 2.0 | 3.0 | 0.00 | 0.00 | 0.00 | 96 | |
| 20260830184540 | 39 | 182 | 2.0 | 3.0 | 0.00 | 0.00 | 0.00 | 96 | |
| 20260830183528 | 39 | 191 | 1.0 | 3.0 | 0.00 | 0.00 | 0.00 | 96 | |
| 20260830182520 | 39 | 192 | 1.0 | 2.0 | 0.00 | 0.00 | 0.00 | 96 | |
| 20260830181528 | 39 | 189 | 2.0 | 5.0 | 0.00 | 0.00 | 0.00 | 96 | |
| 20260830180520 | 40 | 192 | 1.0 | 3.0 | 0.00 | 0.00 | 0.00 | 97 | |
| 20260830175528 | 39 | 199 | 2.0 | 3.0 | 0.00 | 0.00 | 0.00 | 96 | |
| 20260830174520 | 40 | 196 | 2.0 | 3.0 | 0.00 | 0.00 | 0.00 | 96 | |
| 20260830173528 | 40 | 197 | 0.0 | 2.0 | 0.00 | 0.00 | 0.00 | 96 | |
| 20260830172520 | 40 | 0.0 | 0.0 | 0.00 | 0.00 | 0.00 | 95 | ||
| 20260830171528 | 40 | 196 | 1.0 | 1.0 | 0.00 | 0.00 | 0.00 | 95 | |
| 20260830170520 | 41 | 196 | 1.0 | 2.0 | 0.00 | 0.00 | 0.00 | 95 | |
| 20260830165528 | 41 | 195 | 2.0 | 5.0 | 0.00 | 0.00 | 0.00 | 95 | |
| 20260830164540 | 41 | 196 | 2.0 | 3.0 | 0.00 | 0.00 | 0.00 | 95 | |
| 20260830163528 | 41 | 200 | 1.0 | 3.0 | 0.00 | 0.00 | 0.00 | 94 | |
| 20260830162520 | 41 | 200 | 1.0 | 1.0 | 0.00 | 0.00 | 0.00 | 94 | |
| 20260830161548 | 42 | 202 | 1.0 | 2.0 | 0.00 | 0.00 | 0.00 | 93 | |
| 20260830160520 | 43 | 200 | 1.0 | 2.0 | 0.00 | 0.00 | 0.00 | 91 | |
| 20260830155528 | 43 | 198 | 1.0 | 2.0 | 0.00 | 0.00 | 0.00 | 92 | |
| 20260830154520 | 43 | 201 | 2.0 | 3.0 | 0.00 | 0.00 | 0.00 | 92 | |
| 20260830153610 | 43 | 195 | 1.0 | 3.0 | 0.00 | 0.00 | 0.00 | 93 | |
| 20260830152520 | 43 | 201 | 1.0 | 2.0 | 0.00 | 0.00 | 0.00 | 92 | |
| 20260830151548 | 43 | 199 | 1.0 | 2.0 | 0.00 | 0.00 | 0.00 | 92 | |
| 20260830150520 | 43 | 197 | 1.0 | 2.0 | 0.00 | 0.00 | 0.00 | 93 | |
| 20260830145528 | 43 | 197 | 0.0 | 2.0 | 0.00 | 0.00 | 0.00 | 93 | |
| 20260830144520 | 43 | 0.0 | 0.0 | 0.00 | 0.00 | 0.00 | 93 | ||
| 20260830143529 | 43 | 0.0 | 0.0 | 0.00 | 0.00 | 0.00 | 93 | ||
| 20260830142520 | 43 | 0.0 | 0.0 | 0.00 | 0.00 | 0.00 | 91 | ||
| 20260830141528 | 44 | 194 | 1.0 | 2.0 | 0.00 | 0.00 | 0.00 | 92 | |
| 20260830140520 | 44 | 0.0 | 0.0 | 0.00 | 0.00 | 0.00 | 90 | ||
| 20260830135528 | 44 | 201 | 0.0 | 1.0 | 0.00 | 0.00 | 0.00 | 90 | |
| 20260830134520 | 44 | 197 | 0.0 | 2.0 | 0.00 | 0.00 | 0.00 | 90 | |
| 20260830133528 | 44 | 193 | 2.0 | 3.0 | 0.00 | 0.00 | 0.00 | 91 | |
| 20260830132520 | 43 | 189 | 2.0 | 5.0 | 0.00 | 0.00 | 0.00 | 91 | |
| 20260830131528 | 44 | 195 | 2.0 | 3.0 | 0.00 | 0.00 | 0.00 | 89 | |
| 20260830130520 | 45 | 203 | 1.0 | 2.0 | 0.00 | 0.00 | 0.00 | 88 | |
| 20260830125529 | 45 | 196 | 0.0 | 2.0 | 0.00 | 0.00 | 0.00 | 88 | |
| 20260830124520 | 46 | 207 | 1.0 | 2.0 | 0.00 | 0.00 | 0.00 | 88 | |
| 20260830123528 | 46 | 214 | 1.0 | 2.0 | 0.00 | 0.00 | 0.00 | 87 | |
| 20260830122520 | 46 | 204 | 1.0 | 2.0 | 0.00 | 0.00 | 0.00 | 86 | |
| 20260830121528 | 48 | 199 | 0.0 | 2.0 | 0.00 | 0.00 | 0.00 | 82 | |
| 20260830120520 | 49 | 0.0 | 0.0 | 0.00 | 0.00 | 0.00 | 81 | ||
| 20260830115528 | 49 | 200 | 0.0 | 1.0 | 0.00 | 0.00 | 0.00 | 81 | |
| 20260830114520 | 49 | 217 | 1.0 | 1.0 | 0.00 | 0.00 | 0.00 | 82 | |
| 20260830113649 | 49 | 216 | 1.0 | 1.0 | 0.00 | 0.00 | 0.00 | 82 | |
| 20260830112520 | 48 | 211 | 1.0 | 2.0 | 0.00 | 0.00 | 0.00 | 83 |